{"data":{"norad_id":56011,"epoch":"2026-05-24T17:05:52.763136Z","epoch_age_seconds":97119,"freshness":"FRESH","line1":"1 56011U 23042AB  26144.71241624  .00005956  00000+0  22552-3 0  9991","line2":"2 56011  43.0058 335.7713 0002363 240.6231 119.4385 15.27620956174664","mean_motion":15.27620956,"eccentricity":0.0002363,"inclination_deg":43.0058,"raan_deg":335.7713,"arg_perigee_deg":240.6231,"mean_anomaly_deg":119.4385,"bstar":0.00022552,"rev_number":17466,"period_min":94.264221392365,"perigee_km":481.30519248575,"apogee_km":484.54773107778,"semimajor_km":6861.0634617818,"source":"CELESTRAK","updated_at":"2026-05-25T13:38:17.926535Z"}}